Time,TemperatureF,DewpointF,PressureIn,WindDirection,WindDirectionDegrees,WindSpeedMPH,WindSpeedGustMPH,Humidity,HourlyPrecipIn,Conditions,Clouds,dailyrainin,SolarRadiationWatts/m^2,SoftwareType,DateUTC
2013-07-07 00:01:00,59.0,48.0,-100.00,NNW,346,12.0,18.0,66,0.00,,,0.03,0.000000,,2013-07-07 06:01:00,
2013-07-07 00:11:00,59.0,48.0,-100.00,NNW,346,12.0,18.0,66,0.00,,,0.03,0.000000,,2013-07-07 06:11:00,
2013-07-07 00:43:00,57.0,45.0,-100.00,NNW,334,5.0,12.0,65,0.00,,,0.03,0.000000,,2013-07-07 06:43:00,
2013-07-07 00:52:00,57.0,45.0,-100.00,NNW,334,5.0,12.0,65,0.00,,,0.03,0.000000,,2013-07-07 06:52:00,
2013-07-07 01:02:00,57.0,45.0,-100.00,NNW,334,5.0,12.0,65,0.00,,,0.03,0.000000,,2013-07-07 07:02:00,
2013-07-07 01:11:00,57.0,45.0,-100.00,NNW,334,5.0,12.0,65,0.00,,,0.03,0.000000,,2013-07-07 07:11:00,
2013-07-07 01:12:00,59.0,46.0,-100.00,NW,309,5.0,12.0,61,0.00,,,0.03,0.000000,,2013-07-07 07:12:00,
2013-07-07 01:44:00,59.0,46.0,-100.00,NW,309,5.0,12.0,61,0.00,,,0.03,0.000000,,2013-07-07 07:44:00,
2013-07-07 01:53:00,59.0,46.0,-100.00,NW,309,5.0,12.0,61,0.00,,,0.03,0.000000,,2013-07-07 07:53:00,
2013-07-07 02:02:00,59.0,46.0,-100.00,NW,309,5.0,12.0,61,0.00,,,0.03,0.000000,,2013-07-07 08:02:00,
2013-07-07 02:12:00,58.0,45.0,-100.00,WSW,257,2.0,7.0,63,0.00,,,0.03,0.000000,,2013-07-07 08:12:00,
2013-07-07 02:44:00,58.0,45.0,-100.00,WSW,257,2.0,7.0,63,0.00,,,0.03,0.000000,,2013-07-07 08:44:00,
2013-07-07 02:53:00,58.0,45.0,-100.00,WSW,257,2.0,7.0,63,0.00,,,0.03,0.000000,,2013-07-07 08:53:00,
2013-07-07 03:02:00,58.0,45.0,-100.00,WSW,257,2.0,7.0,63,0.00,,,0.03,0.000000,,2013-07-07 09:02:00,
2013-07-07 03:12:00,58.0,46.0,-100.00,ESE,117,0.0,0.0,65,0.00,,,0.03,0.000000,,2013-07-07 09:12:00,
2013-07-07 03:43:00,58.0,46.0,-100.00,ESE,117,0.0,0.0,65,0.00,,,0.03,0.000000,,2013-07-07 09:43:00,
2013-07-07 03:53:00,58.0,46.0,-100.00,ESE,117,0.0,0.0,65,0.00,,,0.03,0.000000,,2013-07-07 09:53:00,
2013-07-07 04:03:00,58.0,46.0,-100.00,ESE,117,0.0,0.0,65,0.00,,,0.03,0.000000,,2013-07-07 10:03:00,
2013-07-07 04:32:00,57.0,46.0,-100.00,NE,42,0.0,0.0,67,0.00,,,0.03,0.000000,,2013-07-07 10:32:00,
2013-07-07 04:43:00,57.0,46.0,-100.00,NE,42,0.0,0.0,67,0.00,,,0.03,0.000000,,2013-07-07 10:43:00,
2013-07-07 04:52:00,57.0,46.0,-100.00,NE,42,0.0,0.0,67,0.00,,,0.03,0.000000,,2013-07-07 10:52:00,
2013-07-07 05:02:00,57.0,46.0,-100.00,NE,42,0.0,0.0,67,0.00,,,0.03,0.000000,,2013-07-07 11:02:00,
2013-07-07 05:11:00,57.0,46.0,-100.00,NE,42,0.0,0.0,67,0.00,,,0.03,0.000000,,2013-07-07 11:11:00,
2013-07-07 05:12:00,56.0,47.0,-100.00,NNE,13,0.0,0.0,72,0.00,,,0.03,0.000000,,2013-07-07 11:12:00,
2013-07-07 05:43:00,56.0,47.0,-100.00,NNE,13,0.0,0.0,72,0.00,,,0.03,0.000000,,2013-07-07 11:43:00,
2013-07-07 05:53:00,56.0,47.0,-100.00,NNE,13,0.0,0.0,72,0.00,,,0.03,0.000000,,2013-07-07 11:53:00,
2013-07-07 06:02:00,56.0,47.0,-100.00,NNE,13,0.0,0.0,72,0.00,,,0.03,0.000000,,2013-07-07 12:02:00,
2013-07-07 06:43:00,57.0,45.0,-100.00,North,354,0.0,0.0,65,0.00,,,0.03,2.000000,,2013-07-07 12:43:00,
2013-07-07 06:52:00,57.0,45.0,-100.00,North,354,0.0,0.0,65,0.00,,,0.03,2.000000,,2013-07-07 12:52:00,
2013-07-07 07:02:00,57.0,45.0,-100.00,North,354,0.0,0.0,65,0.00,,,0.03,2.000000,,2013-07-07 13:02:00,
2013-07-07 07:11:00,57.0,45.0,-100.00,North,354,0.0,0.0,65,0.00,,,0.03,2.000000,,2013-07-07 13:11:00,
2013-07-07 07:12:00,59.0,47.0,-100.00,NNE,24,2.0,4.0,65,0.00,,,0.03,57.000000,,2013-07-07 13:12:00,
2013-07-07 07:43:00,59.0,47.0,-100.00,NNE,24,2.0,4.0,65,0.00,,,0.03,57.000000,,2013-07-07 13:43:00,
2013-07-07 07:52:00,59.0,47.0,-100.00,NNE,24,2.0,4.0,65,0.00,,,0.03,57.000000,,2013-07-07 13:52:00,
2013-07-07 08:02:00,59.0,47.0,-100.00,NNE,24,2.0,4.0,65,0.00,,,0.03,57.000000,,2013-07-07 14:02:00,
2013-07-07 08:43:00,62.0,47.0,-100.00,NNE,16,2.0,5.0,57,0.00,,,0.03,202.000000,,2013-07-07 14:43:00,
2013-07-07 08:53:00,62.0,47.0,-100.00,NNE,16,2.0,5.0,57,0.00,,,0.03,202.000000,,2013-07-07 14:53:00,
2013-07-07 09:02:00,62.0,47.0,-100.00,NNE,16,2.0,5.0,57,0.00,,,0.03,202.000000,,2013-07-07 15:02:00,
2013-07-07 09:11:00,62.0,47.0,-100.00,NNE,16,2.0,5.0,57,0.00,,,0.03,202.000000,,2013-07-07 15:11:00,
2013-07-07 09:43:00,70.0,51.0,-100.00,ESE,114,3.0,6.0,51,0.00,,,0.03,439.000000,,2013-07-07 15:43:00,
2013-07-07 09:52:00,70.0,51.0,-100.00,ESE,114,3.0,6.0,51,0.00,,,0.03,439.000000,,2013-07-07 15:52:00,
2013-07-07 10:01:00,70.0,51.0,-100.00,ESE,114,3.0,6.0,51,0.00,,,0.03,439.000000,,2013-07-07 16:01:00,
2013-07-07 10:11:00,70.0,51.0,-100.00,ESE,114,3.0,6.0,51,0.00,,,0.03,439.000000,,2013-07-07 16:11:00,
2013-07-07 10:12:00,74.0,51.0,-100.00,East,98,4.0,7.0,44,0.00,,,0.03,599.000000,,2013-07-07 16:12:00,
2013-07-07 10:43:00,74.0,51.0,-100.00,East,98,4.0,7.0,44,0.00,,,0.03,599.000000,,2013-07-07 16:43:00,
2013-07-07 10:53:00,74.0,51.0,-100.00,East,98,4.0,7.0,44,0.00,,,0.03,599.000000,,2013-07-07 16:53:00,
2013-07-07 11:02:00,74.0,51.0,-100.00,East,98,4.0,7.0,44,0.00,,,0.03,599.000000,,2013-07-07 17:02:00,
2013-07-07 11:43:00,76.0,52.0,-100.00,South,181,5.0,9.0,43,0.00,,,0.03,747.000000,,2013-07-07 17:43:00,
2013-07-07 11:53:00,76.0,52.0,-100.00,South,181,5.0,9.0,43,0.00,,,0.03,747.000000,,2013-07-07 17:53:00,
2013-07-07 12:02:00,76.0,52.0,-100.00,South,181,5.0,9.0,43,0.00,,,0.03,747.000000,,2013-07-07 18:02:00,
2013-07-07 12:11:00,76.0,52.0,-100.00,South,181,5.0,9.0,43,0.00,,,0.03,747.000000,,2013-07-07 18:11:00,
2013-07-07 12:43:00,79.0,49.0,-100.00,WSW,249,4.0,9.0,35,0.00,,,0.03,873.000000,,2013-07-07 18:43:00,
2013-07-07 12:53:00,79.0,49.0,-100.00,WSW,249,4.0,9.0,35,0.00,,,0.03,873.000000,,2013-07-07 18:53:00,
2013-07-07 13:01:00,79.0,49.0,-100.00,WSW,249,4.0,9.0,35,0.00,,,0.03,873.000000,,2013-07-07 19:01:00,
2013-07-07 13:11:00,79.0,49.0,-100.00,WSW,249,4.0,9.0,35,0.00,,,0.03,873.000000,,2013-07-07 19:11:00,
2013-07-07 13:43:00,80.0,49.0,-100.00,South,186,8.0,14.0,34,0.00,,,0.03,944.000000,,2013-07-07 19:43:00,
2013-07-07 13:54:00,80.0,49.0,-100.00,South,186,8.0,14.0,34,0.00,,,0.03,944.000000,,2013-07-07 19:54:00,
2013-07-07 14:02:00,80.0,49.0,-100.00,South,186,8.0,14.0,34,0.00,,,0.03,944.000000,,2013-07-07 20:02:00,
2013-07-07 14:11:00,80.0,49.0,-100.00,South,186,8.0,14.0,34,0.00,,,0.03,944.000000,,2013-07-07 20:11:00,
2013-07-07 14:34:00,82.0,45.0,-100.00,SW,233,7.0,12.0,27,0.00,,,0.03,921.000000,,2013-07-07 20:34:00,
2013-07-07 14:42:00,82.0,45.0,-100.00,SW,233,7.0,12.0,27,0.00,,,0.03,921.000000,,2013-07-07 20:42:00,
2013-07-07 14:53:00,82.0,45.0,-100.00,SW,233,7.0,12.0,27,0.00,,,0.03,921.000000,,2013-07-07 20:53:00,
2013-07-07 15:02:00,82.0,45.0,-100.00,SW,233,7.0,12.0,27,0.00,,,0.03,921.000000,,2013-07-07 21:02:00,
2013-07-07 15:11:00,82.0,45.0,-100.00,SW,233,7.0,12.0,27,0.00,,,0.03,921.000000,,2013-07-07 21:11:00,
2013-07-07 15:44:00,83.0,46.0,-100.00,SW,230,7.0,14.0,27,0.00,,,0.03,867.000000,,2013-07-07 21:44:00,
2013-07-07 15:53:00,83.0,46.0,-100.00,SW,230,7.0,14.0,27,0.00,,,0.03,867.000000,,2013-07-07 21:53:00,
2013-07-07 16:01:00,83.0,46.0,-100.00,SW,230,7.0,14.0,27,0.00,,,0.03,867.000000,,2013-07-07 22:01:00,
2013-07-07 16:11:00,83.0,46.0,-100.00,SW,230,7.0,14.0,27,0.00,,,0.03,867.000000,,2013-07-07 22:11:00,
2013-07-07 16:12:00,83.0,44.0,-100.00,SW,229,7.0,13.0,25,0.00,,,0.03,766.000000,,2013-07-07 22:12:00,
2013-07-07 16:34:00,83.0,44.0,-100.00,SW,229,7.0,13.0,25,0.00,,,0.03,766.000000,,2013-07-07 22:34:00,
2013-07-07 16:44:00,83.0,44.0,-100.00,SW,229,7.0,13.0,25,0.00,,,0.03,766.000000,,2013-07-07 22:44:00,
2013-07-07 16:54:00,83.0,44.0,-100.00,SW,229,7.0,13.0,25,0.00,,,0.03,766.000000,,2013-07-07 22:54:00,
2013-07-07 17:02:00,83.0,44.0,-100.00,SW,229,7.0,13.0,25,0.00,,,0.03,766.000000,,2013-07-07 23:02:00,
2013-07-07 17:33:00,83.0,44.0,-100.00,WSW,239,6.0,14.0,25,0.00,,,-99.99,623.000000,,2013-07-07 23:33:00,
2013-07-07 17:43:00,83.0,44.0,-100.00,WSW,239,6.0,14.0,25,0.00,,,-99.99,623.000000,,2013-07-07 23:43:00,
2013-07-07 17:53:00,83.0,44.0,-100.00,WSW,239,6.0,14.0,25,0.00,,,-99.99,623.000000,,2013-07-07 23:53:00,
2013-07-07 18:01:00,83.0,44.0,-100.00,WSW,239,6.0,14.0,25,0.00,,,-99.99,623.000000,,2013-07-08 00:01:00,
2013-07-07 18:11:00,83.0,44.0,-100.00,WSW,239,6.0,14.0,25,0.00,,,-99.99,623.000000,,2013-07-08 00:11:00,
2013-07-07 18:43:00,80.0,41.0,-100.00,SW,235,7.0,12.0,25,0.00,,,-99.99,443.000000,,2013-07-08 00:43:00,
2013-07-07 18:53:00,80.0,41.0,-100.00,SW,235,7.0,12.0,25,0.00,,,-99.99,443.000000,,2013-07-08 00:53:00,
2013-07-07 19:01:00,80.0,41.0,-100.00,SW,235,7.0,12.0,25,0.00,,,-99.99,443.000000,,2013-07-08 01:01:00,
2013-07-07 19:11:00,80.0,41.0,-100.00,SW,235,7.0,12.0,25,0.00,,,-99.99,443.000000,,2013-07-08 01:11:00,
2013-07-07 19:32:00,78.0,41.0,-100.00,SW,215,5.0,13.0,27,0.00,,,0.03,251.000000,,2013-07-08 01:32:00,
2013-07-07 19:43:00,78.0,41.0,-100.00,SW,215,5.0,13.0,27,0.00,,,0.03,251.000000,,2013-07-08 01:43:00,
2013-07-07 19:53:00,78.0,41.0,-100.00,SW,215,5.0,13.0,27,0.00,,,0.03,251.000000,,2013-07-08 01:53:00,
2013-07-07 20:02:00,78.0,41.0,-100.00,SW,215,5.0,13.0,27,0.00,,,0.03,251.000000,,2013-07-08 02:02:00,
2013-07-07 20:11:00,78.0,41.0,-100.00,SW,215,5.0,13.0,27,0.00,,,0.03,251.000000,,2013-07-08 02:11:00,
2013-07-07 20:12:00,73.0,40.0,-100.00,SSW,198,8.0,9.0,30,0.00,,,0.00,49.000000,,2013-07-08 02:12:00,
2013-07-07 20:43:00,73.0,40.0,-100.00,SSW,198,8.0,9.0,30,0.00,,,0.00,49.000000,,2013-07-08 02:43:00,
2013-07-07 20:52:00,73.0,40.0,-100.00,SSW,198,8.0,9.0,30,0.00,,,0.00,49.000000,,2013-07-08 02:52:00,
2013-07-07 21:01:00,73.0,40.0,-100.00,SSW,198,8.0,9.0,30,0.00,,,0.00,49.000000,,2013-07-08 03:01:00,
2013-07-07 21:12:00,72.0,39.0,-100.00,SW,220,7.0,13.0,30,0.00,,,0.00,2.000000,,2013-07-08 03:12:00,
2013-07-07 21:34:00,72.0,39.0,-100.00,SW,220,7.0,13.0,30,0.00,,,0.00,2.000000,,2013-07-08 03:34:00,
2013-07-07 21:42:00,72.0,39.0,-100.00,SW,220,7.0,13.0,30,0.00,,,0.00,2.000000,,2013-07-08 03:42:00,
2013-07-07 21:52:00,72.0,39.0,-100.00,SW,220,7.0,13.0,30,0.00,,,0.00,2.000000,,2013-07-08 03:52:00,
2013-07-07 22:02:00,72.0,39.0,-100.00,SW,220,7.0,13.0,30,0.00,,,0.00,2.000000,,2013-07-08 04:02:00,
2013-07-07 22:42:00,72.0,40.0,-100.00,SW,234,8.0,15.0,31,0.00,,,0.00,0.000000,,2013-07-08 04:42:00,
2013-07-07 22:53:00,72.0,40.0,-100.00,SW,234,8.0,15.0,31,0.00,,,0.00,0.000000,,2013-07-08 04:53:00,
2013-07-07 23:01:00,72.0,40.0,-100.00,SW,234,8.0,15.0,31,0.00,,,0.00,0.000000,,2013-07-08 05:01:00,
2013-07-07 23:11:00,72.0,40.0,-100.00,SW,234,8.0,15.0,31,0.00,,,0.00,0.000000,,2013-07-08 05:11:00,
2013-07-07 23:43:00,71.0,40.0,-100.00,SW,227,6.0,14.0,32,0.00,,,0.00,0.000000,,2013-07-08 05:43:00,
2013-07-07 23:53:00,71.0,40.0,-100.00,SW,227,6.0,14.0,32,0.00,,,0.00,0.000000,,2013-07-08 05:53:00,